TimeCST,TemperatureF,Dew PointF,Humidity,Sea Level PressureIn,VisibilityMPH,Wind Direction,Wind SpeedMPH,Gust SpeedMPH,PrecipitationIn,Events,Conditions,WindDirDegrees,DateUTC
12:56 AM,25.2,16.2,69,30.31,10.0,NE,5.8,-,N/A,,Clear,40,2013-02-21 06:56:00
1:56 AM,25.2,17.1,71,30.30,10.0,NE,4.6,-,N/A,,Clear,50,2013-02-21 07:56:00
2:56 AM,25.2,17.1,71,30.29,10.0,ENE,9.2,-,N/A,,Clear,60,2013-02-21 08:56:00
3:56 AM,25.2,17.1,71,30.30,10.0,NE,8.1,-,N/A,,Clear,50,2013-02-21 09:56:00
4:56 AM,25.2,16.2,69,30.32,10.0,ENE,10.4,-,N/A,,Clear,70,2013-02-21 10:56:00
6:56 AM,24.1,16.2,72,30.31,10.0,East,9.2,-,N/A,,Clear,80,2013-02-21 12:56:00
7:56 AM,27.1,17.1,66,30.28,10.0,East,11.5,18.4,N/A,,Clear,80,2013-02-21 13:56:00
8:56 AM,30.0,18.1,61,30.27,10.0,East,10.4,18.4,N/A,,Clear,90,2013-02-21 14:56:00
9:56 AM,34.0,19.0,54,30.28,10.0,East,9.2,18.4,N/A,,Clear,90,2013-02-21 15:56:00
10:56 AM,36.0,20.1,53,30.23,10.0,ENE,11.5,20.7,N/A,,Scattered Clouds,70,2013-02-21 16:56:00
12:56 PM,34.9,19.0,52,30.09,10.0,East,15.0,-,0.00,Rain,Light Rain,90,2013-02-21 18:56:00
1:56 PM,36.0,20.1,53,30.04,10.0,East,12.7,18.4,0.00,,Mostly Cloudy,100,2013-02-21 19:56:00
2:56 PM,36.9,24.1,60,30.07,10.0,East,6.9,-,0.00,Rain,Light Rain,80,2013-02-21 20:56:00
3:48 PM,35.6,30.2,81,30.12,2.5,NNE,6.9,-,0.04,Rain,Light Freezing Rain,20,2013-02-21 21:48:00
3:56 PM,34.9,30.0,82,30.14,3.0,North,5.8,-,0.05,Rain,Light Freezing Rain,10,2013-02-21 21:56:00
4:47 PM,33.8,30.2,87,30.08,7.0,NE,11.5,-,0.02,Rain,Light Freezing Rain,50,2013-02-21 22:47:00
4:56 PM,34.0,30.0,85,30.11,6.0,ENE,10.4,-,0.03,Rain,Light Freezing Rain,60,2013-02-21 22:56:00
5:07 PM,33.8,30.2,87,30.09,4.0,ENE,11.5,-,0.00,Rain,Light Freezing Rain,60,2013-02-21 23:07:00
5:56 PM,34.0,31.1,89,30.03,5.0,ENE,13.8,-,0.08,Rain,Light Freezing Rain,70,2013-02-21 23:56:00
6:06 PM,33.8,30.2,87,30.00,6.0,East,13.8,-,0.00,Rain,Light Freezing Rain,90,2013-02-22 00:06:00
6:29 PM,33.8,30.2,87,29.96,5.0,East,12.7,23.0,0.00,Rain,Light Freezing Rain,80,2013-02-22 00:29:00
6:56 PM,34.0,31.1,89,29.97,6.0,East,13.8,20.7,0.02,Rain,Light Freezing Rain,90,2013-02-22 00:56:00
7:56 PM,34.0,32.0,92,29.95,3.0,ESE,12.7,20.7,0.08,Rain,Light Rain,120,2013-02-22 01:56:00
8:56 PM,34.0,32.0,92,29.96,3.0,ESE,12.7,-,0.09,Rain,Light Rain,120,2013-02-22 02:56:00
9:56 PM,34.9,32.9,92,29.95,6.0,ESE,9.2,-,0.07,,Mostly Cloudy,110,2013-02-22 03:56:00
10:19 PM,35.6,33.8,93,29.93,2.5,ESE,10.4,-,0.03,Rain,Rain,110,2013-02-22 04:19:00
10:27 PM,35.6,33.8,93,29.93,3.0,ESE,10.4,-,0.04,Rain,Rain,110,2013-02-22 04:27:00
10:30 PM,35.6,33.8,93,29.92,2.5,ESE,12.7,-,0.04,Rain,Light Rain,110,2013-02-22 04:30:00
10:38 PM,35.6,33.8,93,29.91,2.0,ESE,11.5,-,0.05,Rain,Light Rain,110,2013-02-22 04:38:00
10:56 PM,34.9,34.0,97,29.91,4.0,ESE,12.7,-,0.05,,Overcast,120,2013-02-22 04:56:00
11:56 PM,36.0,34.9,96,29.87,8.0,ESE,16.1,-,N/A,,Overcast,120,2013-02-22 05:56:00